Regional Weather Roundup
Issued by NWS

Home | Current Version | Previous Version | Text Only | Print | Product List | Glossary Off
Versions: 1 2 3 4 5 6 7 8 9 10 11 12 13 14 15 16 17 18 19 20 21 22 23 24 25 26 27 28 29 30 31 32 33 34 35 36 37 38 39 40 41 42 43 44 45 46 47 48 49 50

000
ASUS43 KOAX 281110
RWRNE

WEATHER ROUNDUP FOR NEBRASKA
NATIONAL WEATHER SERVICE OMAHA NE
600 AM CDT TUE MAR 28 2017

NOTES: SATELLITE DATA IS BEING USED TO AUGMENT CLOUD COVER ABOVE
       12000 FEET.
       "FAIR" INDICATES FEW OR NO CLOUDS BELOW 12,000 FEET WITH NO
       SIGNIFICANT WEATHER AND/OR OBSTRUCTIONS TO VISIBILITY.

  * THESE STATIONS DO NOT REPORT WEATHER SUCH AS RAIN...SNOW OR FOG.

NEZ001>004-019>022-054>056-281200-
NEBRASKA PANHANDLE

CITY           SKY/WX    TMP DP  RH WIND       PRES   REMARKS
SCOTTSBLUFF    RAIN      46  43  89 E13       29.88S FOG
ALLIANCE       RAIN      45  43  93 SE13      29.90S FOG
CHADRON        RAIN      43  41  93 CALM      29.94R FOG
KIMBALL        LGT RAIN  44  44 100 SE16      29.85R
SIDNEY         LGT RAIN  44  42  93 E12       29.88S FOG
$$

NEZ057>060-069>072-079>082-281200-
SOUTHWEST NEBRASKA

CITY           SKY/WX    TMP DP  RH WIND       PRES   REMARKS
NORTH PLATTE   CLOUDY    45  42  89 E8        29.95S
IMPERIAL       LGT RAIN  46  43  89 E9        29.92S
LEXINGTON      FOG       41  40  95 E6        29.99R VSB 1/4
MCCOOK         CLOUDY    45  44  97 SE7       29.95R FOG
OGALLALA       CLOUDY    47  44  89 S8        29.92R
$$

NEZ005>010-023>029-035>040-094-281200-
NORTH CENTRAL NEBRASKA

CITY           SKY/WX    TMP DP  RH WIND       PRES   REMARKS
VALENTINE      LGT RAIN  46  42  86 E5        29.99R
AINSWORTH      CLOUDY    43  42  96 S3        29.98S
BROKEN BOW     FOG       41  40  96 SE9       29.98R VSB 3/4
O`NEILL        CLOUDY    41  40  97 SE7       30.03R
ORD            CLOUDY    40  38  93 E8        30.00S FOG     WCI  34
THEDFORD       CLOUDY    43  42  96 SE3       29.97R FOG
$$

NEZ041-046>049-061>064-073>077-083>087-281200-
SOUTH CENTRAL NEBRASKA

CITY           SKY/WX    TMP DP  RH WIND       PRES   REMARKS
GRAND ISLAND   CLEAR     33  33 100 E3        30.02S FOG
AURORA         FOG       32  32 100 E3        30.02R VSB 1/4
HASTINGS       CLOUDY    38  37  97 E6        30.02R FOG     WCI  33
HEBRON         MOCLDY    37  36  98 E3        30.02R FOG
HOLDREGE       FOG       41  40  97 SE7       30.00R VSB 1/4
KEARNEY *      CLOUDY    41  37  87 E7        30.02R
YORK           FOG       32  32 100 NE5       30.03R VSB<1/4 WCI  27
$$

NEZ011>018-030>034-042>045-281200-
NORTHEAST NEBRASKA

CITY           SKY/WX    TMP DP  RH WIND       PRES   REMARKS
NORFOLK        FOG       31  30  96 SE5       30.03S VSB 1/2 WCI  26
ALBION         CLEAR     36  34  93 CALM      30.04R FOG
BLAIR          CLOUDY    40  38  93 NE7       30.04S WCI  35
FREMONT        MOCLDY    37  37 100 CALM      30.06R
TEKAMAH        FOG       31  30  96 NW7       30.06R VSB 1   WCI  24
WAYNE          FOG       29  29  99 CALM      30.05S VSB 1/4
$$

NEZ050>053-065>068-078-088>093-281200-
SOUTHEAST NEBRASKA

CITY           SKY/WX    TMP DP  RH WIND       PRES   REMARKS
LINCOLN        PTCLDY    33  32  96 S3        30.06R
OMAHA EPPLEY   CLOUDY    39  35  86 NW6       30.06R WCI  35
BEATRICE       CLOUDY    37  37  97 CALM      30.03S FOG
FALLS CITY     CLOUDY    46  42  86 CALM      30.03R
NEBRASKA CITY  CLOUDY    43  41  92 N3        30.04S
PLATTSMOUTH    CLOUDY    42  38  86 N5        30.05R
$$

NEZ044-045-051>053-067-281200-
OMAHA AREA

CITY           SKY/WX    TMP DP  RH WIND       PRES   REMARKS
OMAHA EPPLEY   CLOUDY    39  35  86 NW6       30.06R WCI  35
BLAIR          CLOUDY    40  38  93 NE7       30.04S WCI  35
FREMONT        MOCLDY    37  37 100 CALM      30.06R
MILLARD        CLOUDY    45  40  85 CALM      30.05S
OFFUTT AFB     CLOUDY    42  39  88 NE5       30.05R
PLATTSMOUTH    CLOUDY    42  38  86 N5        30.05R
WAHOO          FAIR      38  37  96 N3        30.05R FOG
$$



USA.gov is the U.S. government's official web portal to all federal, state and local government web resources and services.